[[{"header":{"parameterUnit":"m.s-1","parameterCategory":1,"la1":30.2991,"la2":30.254,"lo1":-89.0895,"lo2":-89.0444,"dy":0.0017,"dx":0.0017,"nx":28,"ny":28,"refTime":"2024-07-10T03:00:00:Z","depth":0,"parameterNumber":2,"parameterNumberName":"U-component_of_WINDS"},"data":[0,0,0,0,0,0,0,0,0,0,0,0,0,0,0,0,0,0,0,0,0,0,0,0,0,0,0,0,0,0,0,0,0,0,0,0,0,0,0,0,0,0,0,0,0,0,0,0,0,0,0,0,0,0,0,0,0,0,0.5199,0.5199,0,0.5226,0.5226,0.5226,0.5223,0.5223,0.5222,0.5222,0.5253,0.5254,0.5255,0,0,0,0,0,0,0,0,0,0,0,0,0,0.5147,0.5148,0.5199,0.5199,0.5199,0.5226,0.5226,0.5226,0.5223,0.5223,0.5222,0.5222,0.5252,0.5254,0.5255,0,0,0,0,0,0,0,0,0,0,0,0,0,0.5171,0.5148,0.5199,0.5201,0.5201,0.5225,0.5226,0.5226,0.5224,0.5223,0.5222,0.5222,0.5252,0.5253,0.5255,0.528,0,0,0.5261,0.5262,0,0,0,0,0,0,0,0,0.517,0.5173,0.52,0.5201,0.5201,0.522,0.5219,0.5244,0.5224,0.5215,0.5222,0.5221,0.5243,0.5245,0.5252,0.5281,0.5282,0.5261,0.5262,0.5263,0.5263,0,0,0,0,0,0,0,0.5168,0.5172,0.5209,0.5201,0.5201,0.5202,0.5204,0.5224,0.5232,0.5216,0.5216,0.5219,0.5243,0.525,0.5252,0.5283,0.5261,0.5263,0.5264,0.5264,0.5334,0.5335,0,0,0,0,0,0,0.5166,0.5171,0.5209,0.521,0.5184,0.5203,0.5206,0.5215,0.5232,0.5234,0.5219,0.5219,0.5247,0.525,0.5253,0.5283,0.5263,0.5265,0.5266,0.5333,0.5334,0.5335,0,0,0,0,0,0,0.5165,0.5169,0.5207,0.519,0.5195,0.5205,0.5215,0.5216,0.5223,0.5235,0.5236,0.5225,0.5247,0.5251,0.5273,0.5284,0.5265,0.5267,0.5332,0.5334,0.5335,0.5343,0,0,0,0,0,0,0.5163,0.5169,0.5177,0.5191,0.5196,0.5226,0.5215,0.5217,0.5226,0.5225,0.524,0.5242,0.5247,0.527,0.5275,0.5286,0.5269,0.5331,0.5333,0.5334,0.5342,0.5344,0.5346,0,0,0,0,0,0.5161,0.5179,0.5178,0.5182,0.5207,0.5226,0.523,0.5233,0.5227,0.5236,0.5244,0.5242,0.5282,0.5273,0.5278,0.529,0.5331,0.5333,0.5334,0.5341,0.5344,0.5346,0,0,0,0,0,0,0.5168,0.5181,0.518,0.5202,0.5213,0.5226,0.5237,0.5236,0.525,0.5249,0.5254,0.5257,0.528,0.5287,0.5276,0.5315,0.5306,0.5309,0.5309,0.5312,0.5314,0.5312,0.527,0,0,0,0,0,0.5172,0.5185,0.5196,0.5215,0.5221,0.5228,0.5237,0.5238,0.525,0.5255,0.5264,0.5277,0.5292,0.5303,0.5318,0.5343,0.5346,0.5354,0.5356,0.5358,0.536,0.5375,0.5378,0.5341,0.5341,0.5341,0,0,0.518,0.5189,0.5198,0.5217,0.5225,0.524,0.5232,0.5248,0.5259,0.5258,0.5279,0.5286,0.5301,0.5325,0.5336,0.5331,0.5372,0.536,0.5361,0.5363,0.5377,0.538,0.5384,0.5342,0.5342,0.5341,0,0,0.5203,0.5211,0.5227,0.5236,0.5249,0.5254,0.5258,0.5271,0.5276,0.5297,0.5296,0.531,0.5337,0.5347,0.5356,0.5383,0.5382,0.5388,0.54,0.5414,0.5417,0.5419,0.5429,0.5433,0.539,0.539,0.539,0,0.5212,0.5234,0.5236,0.5252,0.5261,0.526,0.5277,0.5286,0.5304,0.531,0.5305,0.5338,0.5348,0.5374,0.5381,0.5388,0.5393,0.5386,0.5416,0.5419,0.5421,0.5431,0.5435,0.5391,0.5391,0.5391,0.5391,0,0.5244,0.5259,0.5271,0.5287,0.5297,0.5314,0.532,0.533,0.5332,0.5337,0.5359,0.5371,0.5388,0.5395,0.5396,0.5421,0.5418,0.5415,0.5406,0.5425,0.5435,0.5438,0.5392,0.5391,0.5391,0.5391,0,0,0.5272,0.5289,0.5293,0.5301,0.5315,0.5327,0.5344,0.536,0.5369,0.5382,0.5396,0.5419,0.5416,0.5426,0.5429,0.5441,0.5462,0.5436,0.5436,0.544,0.5491,0.5494,0.5498,0.5461,0.5462,0.5463,0.549,0,0.5296,0.5325,0.5328,0.5354,0.5368,0.5368,0.5383,0.5394,0.54,0.5413,0.542,0.5436,0.543,0.5437,0.5449,0.5457,0.5472,0.5455,0.5476,0.5477,0.5473,0.5503,0.5505,0.553,0.5493,0.5494,0.5494,0,0.5328,0.534,0.5368,0.538,0.5387,0.54,0.5415,0.5428,0.5441,0.5444,0.5455,0.5457,0.5475,0.5466,0.5492,0.548,0.5489,0.5495,0.5496,0.5498,0.5487,0.5506,0.5538,0.5542,0.55,0.55,0.5499,0,0.5345,0.5369,0.5389,0.5395,0.541,0.542,0.5427,0.5439,0.5448,0.5462,0.5468,0.5485,0.5493,0.5506,0.5513,0.5505,0.5539,0.5529,0.5543,0.5543,0.555,0.5549,0.5585,0.5556,0.5556,0.5555,0.5555,0,0.5372,0.5389,0.5397,0.5408,0.5428,0.5432,0.5451,0.5458,0.5469,0.5483,0.5483,0.5497,0.5504,0.5519,0.5524,0.5545,0.5549,0.5553,0.5555,0.5553,0.5553,0.5559,0.5558,0.5556,0.5556,0.5556,0.5556,0,0.5395,0.54,0.5421,0.5434,0.5438,0.5451,0.5463,0.5475,0.5481,0.5498,0.5503,0.5513,0.553,0.5537,0.5559,0.5563,0.5587,0.5587,0.5582,0.5583,0.5596,0.5595,0.5637,0.5643,0.561,0.561,0.561,0,0.5411,0.5424,0.5438,0.5447,0.5454,0.5468,0.5478,0.5483,0.5493,0.5509,0.552,0.5537,0.5551,0.5579,0.5589,0.5606,0.5606,0.562,0.5609,0.5607,0.5607,0.5606,0.5607,0.5622,0.5622,0.5622,0.5623,0,0.544,0.5442,0.5456,0.547,0.5481,0.5493,0.5505,0.5513,0.552,0.5531,0.5549,0.5559,0.5581,0.5599,0.5616,0.5625,0.5625,0.5626,0.563,0.5629,0.5626,0.5628,0.5588,0.5625,0.5625,0.5625,0.5624,0.5624,0.546,0.5472,0.5483,0.5498,0.5507,0.5518,0.553,0.5538,0.5552,0.557,0.5572,0.5591,0.5604,0.5628,0.5637,0.5652,0.5649,0.5655,0.5656,0.5658,0.5659,0.5623,0.5656,0.5656,0.5656,0.5655,0.5655,0,0.5489,0.5497,0.551,0.5526,0.5538,0.5537,0.555,0.556,0.5577,0.5589,0.5602,0.5623,0.564,0.5651,0.5668,0.5679,0.568,0.5683,0.5683,0.5685,0.5661,0.5655,0.5683,0.5683,0.5683,0.5683,0.5683,0.5683,0.5506,0.5525,0.5529,0.5553,0.5561,0.5578,0.5586,0.5596,0.5606,0.5629,0.5642,0.5649,0.5661,0.568,0.5696,0.5699,0.5705,0.5709,0.5712,0.5689,0.5686,0.5684,0.5679,0.5711,0.5711,0.5735,0.5735,0.5736]},{"header":{"parameterUnit":"m.s-1","parameterCategory":1,"la1":30.2991,"la2":30.254,"lo1":-89.0895,"lo2":-89.0444,"dy":0.0017,"dx":0.0017,"nx":28,"ny":28,"refTime":"2024-07-10T03:00:00:Z","depth":0,"parameterNumber":3,"parameterNumberName":"V-component_of_WINDS"},"data":[0,0,0,0,0,0,0,0,0,0,0,0,0,0,0,0,0,0,0,0,0,0,0,0,0,0,0,0,0,0,0,0,0,0,0,0,0,0,0,0,0,0,0,0,0,0,0,0,0,0,0,0,0,0,0,0,0,0,1.7809,1.7809,0,1.7806,1.7806,1.7805,1.779,1.779,1.779,1.7789,1.7784,1.7784,1.7785,0,0,0,0,0,0,0,0,0,0,0,0,0,1.7802,1.7802,1.7809,1.7809,1.7809,1.7806,1.7806,1.7805,1.779,1.779,1.7789,1.7789,1.7784,1.7784,1.7785,0,0,0,0,0,0,0,0,0,0,0,0,0,1.7802,1.7802,1.7809,1.7801,1.7801,1.7806,1.7806,1.7805,1.779,1.779,1.7789,1.7789,1.7784,1.7784,1.7785,1.7797,0,0,1.7786,1.7786,0,0,0,0,0,0,0,0,1.7802,1.7803,1.7803,1.7802,1.7801,1.7798,1.7801,1.7803,1.7791,1.7794,1.7789,1.7789,1.7789,1.7789,1.7789,1.7797,1.7796,1.7786,1.7786,1.7786,1.7786,0,0,0,0,0,0,0,1.7802,1.7803,1.7808,1.7803,1.7802,1.7797,1.7797,1.7801,1.7795,1.7794,1.7793,1.7793,1.7789,1.7789,1.7789,1.7796,1.7786,1.7786,1.7786,1.7786,1.7812,1.7812,0,0,0,0,0,0,1.7804,1.7803,1.7808,1.7808,1.7801,1.7798,1.7797,1.7799,1.7795,1.7793,1.7793,1.7792,1.7789,1.7789,1.7789,1.7802,1.7786,1.7786,1.7786,1.7811,1.7812,1.7812,0,0,0,0,0,0,1.7804,1.7804,1.7808,1.7805,1.7805,1.7799,1.7801,1.78,1.78,1.7794,1.7793,1.7795,1.7788,1.7789,1.7795,1.7801,1.7786,1.7787,1.781,1.7811,1.7812,1.7828,0,0,0,0,0,0,1.7804,1.7804,1.7809,1.7805,1.7805,1.7815,1.7802,1.78,1.7801,1.7799,1.7795,1.7794,1.7788,1.7794,1.7795,1.7801,1.7787,1.781,1.7811,1.7812,1.7827,1.7829,1.7831,0,0,0,0,0,1.7803,1.7814,1.781,1.7811,1.7812,1.7815,1.7815,1.7808,1.7801,1.7806,1.7802,1.7794,1.7801,1.7795,1.7796,1.7802,1.7809,1.7811,1.7812,1.7826,1.7829,1.7831,0,0,0,0,0,0,1.7819,1.7814,1.7809,1.7819,1.7817,1.7812,1.7818,1.7812,1.7812,1.7811,1.7802,1.7801,1.7808,1.7806,1.78,1.7813,1.7804,1.7805,1.7814,1.7817,1.7819,1.7819,1.7787,0,0,0,0,0,1.7824,1.7828,1.7822,1.7832,1.7831,1.7825,1.7826,1.7821,1.7819,1.7818,1.7815,1.7813,1.7814,1.7816,1.7817,1.7826,1.7825,1.7831,1.7833,1.7835,1.7836,1.784,1.7842,1.7816,1.7816,1.7816,0,0,1.7834,1.7831,1.7834,1.7835,1.7833,1.7836,1.7825,1.7829,1.7831,1.7819,1.7824,1.7822,1.7819,1.7827,1.783,1.7825,1.7843,1.7837,1.7838,1.7838,1.7841,1.7844,1.7846,1.7817,1.7817,1.7816,0,0,1.7853,1.7852,1.7859,1.7857,1.7855,1.7851,1.7852,1.7848,1.7846,1.7851,1.7842,1.7844,1.7847,1.7845,1.7845,1.7862,1.7854,1.7863,1.7874,1.7877,1.7879,1.7881,1.7886,1.7888,1.7864,1.7864,1.7864,0,1.7865,1.787,1.7863,1.7868,1.7868,1.7857,1.7863,1.7862,1.7861,1.7861,1.7855,1.7858,1.7856,1.7862,1.7866,1.7866,1.7867,1.7863,1.788,1.7881,1.7883,1.7888,1.789,1.7865,1.7865,1.7864,1.7864,0,1.7885,1.7888,1.7894,1.7892,1.7893,1.7899,1.7892,1.7893,1.7888,1.7883,1.7888,1.7885,1.7885,1.7886,1.7881,1.7891,1.7888,1.7881,1.7872,1.7886,1.7891,1.7892,1.7866,1.7866,1.7865,1.7865,0,0,1.7914,1.7908,1.791,1.7908,1.7905,1.7907,1.7912,1.7911,1.7912,1.7911,1.7914,1.7916,1.791,1.7909,1.7904,1.7907,1.7919,1.79,1.7899,1.7903,1.7929,1.7933,1.7936,1.7915,1.7915,1.7915,1.7929,0,1.7931,1.7939,1.7932,1.7941,1.7943,1.7933,1.7936,1.7934,1.793,1.7931,1.7927,1.7928,1.792,1.7919,1.7922,1.7917,1.7924,1.7916,1.7916,1.7916,1.7916,1.7938,1.7943,1.7956,1.7931,1.7931,1.7931,0,1.7953,1.7952,1.7961,1.7956,1.7956,1.796,1.7958,1.796,1.7957,1.7953,1.7952,1.7945,1.7948,1.794,1.7943,1.7938,1.7937,1.7935,1.7935,1.7934,1.7924,1.7937,1.796,1.7962,1.7934,1.7934,1.7933,0,1.7971,1.7973,1.7978,1.7978,1.7972,1.7974,1.7972,1.7968,1.7968,1.7967,1.7966,1.7966,1.7965,1.7964,1.7956,1.7951,1.796,1.7951,1.7957,1.7957,1.7959,1.7959,1.7982,1.796,1.796,1.796,1.796,0,1.7991,1.7996,1.7987,1.799,1.7995,1.7987,1.7992,1.7989,1.7986,1.7987,1.7978,1.798,1.7971,1.7971,1.7965,1.7968,1.7968,1.7965,1.7963,1.7965,1.7966,1.7964,1.7963,1.7961,1.796,1.796,1.796,0,1.8013,1.8007,1.8011,1.8005,1.8004,1.8008,1.8003,1.8005,1.8,1.8002,1.8002,1.7994,1.7994,1.7987,1.7985,1.7981,1.7986,1.7983,1.7987,1.7986,1.7992,1.7991,1.8014,1.8016,1.7994,1.7995,1.7995,0,1.8025,1.8029,1.8023,1.8024,1.8022,1.8023,1.8023,1.8015,1.8014,1.8011,1.8013,1.8012,1.8011,1.8011,1.8005,1.8003,1.7999,1.8007,1.7999,1.8,1.7998,1.7998,1.7997,1.8009,1.8009,1.801,1.801,0,1.8047,1.8044,1.8044,1.8043,1.8043,1.8041,1.8039,1.804,1.8031,1.8031,1.8031,1.803,1.8028,1.8027,1.8024,1.8021,1.8013,1.8013,1.8014,1.8015,1.8017,1.8015,1.7991,1.8012,1.8012,1.8011,1.8011,1.8011,1.8064,1.8067,1.8063,1.8063,1.806,1.8058,1.806,1.8055,1.8055,1.8053,1.8048,1.8048,1.8043,1.8039,1.8036,1.8036,1.8031,1.8033,1.8033,1.8034,1.8035,1.8018,1.8035,1.8035,1.8035,1.8035,1.8035,0,1.8085,1.8082,1.8082,1.8079,1.8079,1.8072,1.807,1.807,1.807,1.8067,1.8065,1.8064,1.8063,1.8057,1.8054,1.8055,1.8052,1.8055,1.8054,1.8053,1.8039,1.8038,1.8057,1.8057,1.8057,1.8057,1.8057,1.8057,1.8096,1.8099,1.8095,1.8097,1.8094,1.8094,1.8092,1.809,1.8087,1.8087,1.8086,1.8082,1.8077,1.8074,1.8072,1.807,1.8069,1.8073,1.807,1.8057,1.8054,1.8052,1.8051,1.8073,1.8073,1.8084,1.8084,1.8084]}]]